Location: Eldred Sherwood Park Lake Dam
(42.9416°N, 93.5655°W)
Time: 09:32:32
(UTC+00:00)

ACS3 Solar Sail - Visible Passes

Search period start: 09 November 2025 00:00
Search period end: 19 November 2025 00:00
Orbit: 917 x 987 km, 97.3° (Epoch: 08 November)

Date Brightness Start Highest point End Pass type
(mag) Time Alt. Az. Time Alt. Az. Time Alt. Az.
09 Nov 3.7 09:16:21 10° NNE 09:18:16 21° NNE 09:18:16 21° NNE visible
09 Nov 3.2 11:00:03 10° NNW 11:02:25 20° NNW 11:02:25 20° NNW visible
10 Nov 3.6 09:34:12 10° NNE 09:36:12 22° NNE 09:36:12 22° NNE visible
10 Nov 3.4 11:18:32 10° NNW 11:20:20 16° NW 11:20:20 16° NW visible
11 Nov 3.4 09:52:05 10° N 09:54:05 22° N 09:54:05 22° N visible
11 Nov 3.6 11:37:20 10° NNW 11:38:13 12° NW 11:38:13 12° NW visible
12 Nov 3.4 10:10:01 10° N 10:11:55 21° N 10:11:55 21° N visible
13 Nov 4.4 08:45:14 10° NNE 08:45:36 12° NNE 08:45:36 12° NNE visible
13 Nov 3.5 10:28:00 10° N 10:29:43 19° N 10:29:43 19° N visible
14 Nov 4.2 09:02:41 10° NNE 09:03:22 13° NNE 09:03:22 13° NNE visible
14 Nov 3.5 10:46:03 10° N 10:47:30 17° NNW 10:47:30 17° NNW visible
15 Nov 4.1 09:20:15 10° NNE 09:21:06 14° NNE 09:21:06 14° NNE visible
15 Nov 3.6 11:04:13 10° NNW 11:05:13 14° NNW 11:05:13 14° NNW visible
16 Nov 4.0 09:37:52 10° NNE 09:38:47 15° NNE 09:38:47 15° NNE visible
16 Nov 3.7 11:22:34 10° NNW 11:22:54 11° NNW 11:22:54 11° NNW visible
17 Nov 3.9 09:55:33 10° N 09:56:26 15° N 09:56:26 15° N visible
18 Nov 3.9 10:13:16 10° N 10:14:03 14° N 10:14:03 14° N visible
